Hourly Data Report for September 28, 2019

TORONTO CITY
ONTARIO
Current Station Operator: ECCC - MSC

43°40'00.000" N
79°24'00.000" W
112.50 m
6158355
71508
XTO

Download Data

Hourly Data (September 2019)
Hourly Data Report for September 28, 2019
TIME
LST
Temp Definition
°C
Dew Point Definition
°C
Rel Hum Definition
%
Precip. Amount Definition
mm

Wind Dir Definition
10's deg

Wind Spd Definition
km/h
Visibility Definition
km
Stn Press Definition
kPa
Hmdx Definition


Wind Chill Definition


Weather Definition


00:00 18.6 12.5 68 0.0       99.68     LegendNANA
01:00 20.5 12.3 59 0.0       99.73     LegendNANA
02:00 19.4 13.6 69 0.0       99.79     LegendNANA
03:00 19.1 14.0 72 0.0       99.78     LegendNANA
04:00 18.7 13.9 74 0.0       99.82     LegendNANA
05:00 18.1 16.0 88 2.0       99.84     LegendNANA
06:00 18.6 16.7 89 0.4       99.85     LegendNANA
07:00 18.5 16.6 88 0.0       99.90     LegendNANA
08:00 18.8 16.4 86 0.0       99.98     LegendNANA
09:00 20.0 16.9 82 0.0       100.08 25   LegendNANA
10:00 19.5 16.6 83 0.3       100.10     LegendNANA
11:00 19.9 16.7 82 0.0       100.15     LegendNANA
12:00 19.2 16.8 86 0.5       100.20     LegendNANA
13:00 17.6 14.9 84 1.1       100.31     LegendNANA
14:00 18.7 15.3 80 0.0       100.30     LegendNANA
15:00 18.6 14.4 76 0.0       100.43     LegendNANA
16:00 18.6 12.8 69 0.0       100.50     LegendNANA
17:00 18.3 12.1 67 0.0       100.58     LegendNANA
18:00 17.8 11.6 67 0.0       100.67     LegendNANA
19:00 17.1 11.5 70 0.0       100.76     LegendNANA
20:00 16.2 10.9 71 0.0       100.86     LegendNANA
21:00 15.4 10.6 73 0.0       100.95     LegendNANA
22:00 14.7 11.0 78 0.0       101.03     LegendNANA
23:00 14.7 11.3 80 0.0       101.08     LegendNANA

Notes on Data Quality.

Legend

  • E = Estimated
  • M = Missing
  • NA = Not Available*
  • [empty] = Indicates an unobserved value
Date modified: